User: anonymous   Login
Location: Unspecified
(43.4680°N, 87.1740°E)
Time: 18:41:08
(UTC+00:00)
Language:

Lacrosse 5 rocket - Orbit

View from above orbital plane
View from above orbital plane
View from above satellite
View from above satellite

Ground track
Ground track

The orbit data is extracted from the following two-line orbital elements,

1 28647U 05016B   21171.31221015  .00000120  00000-0  25050-4 0  9995
2 28647  56.9948 184.0409 0128743  87.4452 274.1317 15.06432670115388
Epoch (UTC): 20 June 2021 07:29:34
Eccentricity: 0.0128743
inclination: 56.9948°
perigee height: 458 km
apogee height: 636 km
right ascension of ascending node: 184.0409°
argument of perigee: 87.4452°
revolutions per day: 15.06432670
mean anomaly at epoch: 274.1317°
orbit number at epoch: 11538

The dashed part of the orbit path shows where the satellite is in the earth's shadow,  

DLR